Gold Country Challenge - Loft Flight - No Birds Forced Out

Station: Loft Fly Inventory - T Race

Distance: 10 Miles

Release: 10-Jun-2021 12:00

Weather Release: Mild 70s    Arrival: Mild 70s

Wind at Release:     Wind at Arrival:

Temp at Release: °    Temp at Arrival: °

Lofts: 105

Birds: 463

Clocked: 341

Loft Fly & Open Loft. No Birds forced out of loft.
Drops Pos Breeder Pigeon Name Color Sex Ent Arrival Speed To Win Elg PdChampAOC
1 Sierra Ranch - CA 1034-AU21-AUB BB H 1 12:47:47.50 368.265 00:00:00 Yes
2 Skylinerpl.Com - UT 1186-AU21-UVI 13BE332/LG BC H 1 12:47:48.90 368.085 00:00:01 Yes
3 Toegi Loft - CA 3563-AU21-FOYS BB H 1 12:47:49.00 368.072 00:00:02 Yes
4 Kereru Whare - CA 4350-AU21-FSC BB H 1 12:47:52.10 367.675 00:00:05 Yes
5 Crazy Als Lofts - CO 5901-AU21-CRAZ BC H 1 12:47:52.60 367.611 00:00:05 Yes
6 John Gutierrez - NM 21076-AU21-GUTZ BB H 1 12:47:54.70 367.343 00:00:07 Yes
7 Kereru Whare - CA 4373-AU21-FSC BB H 2 12:47:56.00 367.177 00:00:08 Yes
8 Denis Eastwood - CA 23643-AU21-JEDD BB H 1 12:48:06.20 365.879 00:00:19 Yes
9 Peters - GA 12497-AU21-FOYS 12497 MONSTER KILLER-6 BC H 1 12:48:06.50 365.841 00:00:19 Yes
10 Fleet Washington - DC 2155-AU21-FLTW BB H 1 12:48:07.50 365.714 00:00:20 Yes
11 Christopher Loft - UT 0049-AU21-GS BB H 1 12:48:12.30 365.107 00:00:25 Yes
12 Silicon Valley Syndicate - CA 21060-AU21-SVS DC H 1 12:48:35.50 362.202 00:00:48 Yes
13 Toegi Loft - CA 43712-AU21-ARPU BC H 2 12:48:39.20 361.743 00:00:52 Yes
14 Scm Lofts - CA 16722-AU21-JEDD RC H 1 12:48:51.10 360.274 00:01:04 Yes
15 BIRDHIGH RANCH - CA 9239-AU21-JEDD DGRZ H 1 12:48:59.60 359.233 00:01:12 Yes
16 PNWC - ID 1074-AU21-PNWC BCPD H 1 12:49:00.10 359.171 00:01:13 Yes
17 Rachel Olivieri - CA 0212-AU21-LAKE BB H 1 12:49:04.80 358.598 00:01:17 Yes
18 Genesis Syndicate Loft - AZ 0207-AU21-GENS BB H 1 12:49:08.00 358.209 00:01:20 Yes
19 Kfly Racing Pigeon Loft - ID 2102-AU21-KFLY Little Maximillian BB H 1 12:49:11.90 357.736 00:01:24 Yes
20 Toegi Loft - CA 43715-AU21-ARPU DC H 3 12:49:13.80 357.506 00:01:26 Yes
21 Emmalyn & Carelyn Loft - CA 0708-AU21-CEYX ~ CEYX 708 ~ SLT H 1 12:49:52.20 352.918 00:02:05 Yes
22 Neven Batinic - CA 7510-AU21-FOYS BC H 1 12:49:59.10 352.106 00:02:12 Yes
23 Kfly Racing Pigeon Loft - ID 2108-AU21-KFLY Stichelbaut X 699 BB H 2 12:50:21.80 349.461 00:02:34 Yes
24 Jim Lauritzen - CA 0417-AU21-EAV SLTS H 1 12:50:40.00 347.368 00:02:53 Yes
25 House Of Paine - CA 1107-AU21-HOP RAR565xXXX16 BC H 1 12:50:44.80 346.821 00:02:57 Yes
26 E & K Loft - TX 0304-AU21-EK BLK H 1 12:51:28.00 341.969 00:03:40 Yes
27 BIRDHIGH RANCH - CA 9236-AU21-JEDD BLKP H 2 12:51:31.70 341.560 00:03:44 Yes
28 Christopher Loft - UT 0038-AU21-GS BC H 2 12:52:03.70 338.061 00:04:16 Yes
29 Tucson Triple Challenge - AZ 11996-AU21-JEDD BB H 1 12:52:05.60 337.855 00:04:18 Yes
30 Bieche Lofts - CA 1037-AU21-BIE BC H 1 12:52:14.60 336.885 00:04:27 Yes
31 Salvicon - CA 0025-AU21-FCON DC H 1 12:52:50.80 333.039 00:05:03 Yes
32 RC Manaois Family Loft - NV 10733-AU21-ARPU BB H 1 12:52:59.40 332.138 00:05:12 Yes
33 Gomez Loft - CA 4174-AU21-CHP BC H 1 12:53:34.60 328.501 00:05:47 Yes
34 Erwin Racing Loft - CA 7027-AU21-BON BB H 1 12:53:50.00 326.935 00:06:02 Yes
35 Emmalyn & Carelyn Loft - CA 0727-AU21-CEYX ~ CEYX 727 ~ BBWF H 2 12:53:58.80 326.047 00:06:11 Yes
36 Peters - GA 0204-IF21-CGO 204 MONSTER KILLER-2 BB H 2 12:53:59.30 325.996 00:06:12 Yes
37 H & H Flying Circus - CA 0403-AU21-ML BB H 1 12:54:01.20 325.805 00:06:14 Yes
38 Kereru Whare - CA 4333-AU21-FSC MLY H 3 12:54:38.50 322.099 00:06:51 Yes
39 Fleet Washington - DC 2138-AU21-FLTW BBSP H 2 12:54:58.00 320.194 00:07:11 Yes
40 Rachel Olivieri - CA 0208-AU21-LAKE BBWF H 2 12:55:30.60 317.060 00:07:43 Yes
41 O C F Syndicate - CA 1013-AU21-TOP BB H 1 12:55:35.10 316.632 00:07:48 Yes
42 Ponce & H. Padilla - CA 1644-AU21-MTZ BBWF H 1 12:55:41.50 316.026 00:07:54 Yes
43 Dan & Greg Coury - AZ 0780-AU21-AONE BC H 1 12:55:50.30 315.196 00:08:03 Yes
44 Racing Pigeon Mall - WA 0104-AU21-RPM BBWF H 1 12:55:55.50 314.707 00:08:08 Yes
45 Sextons Loft - IA 0217-AU21-DMI GENERAL PATTON BB C 1 12:56:01.20 314.174 00:08:14 Yes
46 Duane Gragg - CA 0304-AU21-AUB BB H 1 12:56:20.20 312.408 00:08:33 Yes
47 FLY EAGLE LOFT - NC 98060-AU21-ARPU BC H 1 12:56:23.70 312.084 00:08:36 Yes
48 Sierra Ranch - CA 1056-AU21-AUB BC H 2 12:56:35.60 310.991 00:08:48 Yes
49 FLY EAGLE LOFT - NC 0098-AU21-DBS BBSP H 2 12:56:37.80 310.789 00:08:50 Yes
50 Cloux Loft - CO 35100-AU21-AA BC H 1 12:56:41.90 310.415 00:08:54 Yes
51 R & M Lofts - TX 0327-AU21-WACO BB H 1 12:56:53.50 309.360 00:09:06 Yes
52 Thai Tommy Rusty - NV 20227-AU21-JEDD BBSP H 1 12:57:26.60 306.389 00:09:39 Yes
53 Toegi Loft - CA 3562-AU21-FOYS BBSP H 4 12:58:54.10 298.803 00:11:07 Yes
54 Nemelka Racing Pigeon Loft - UT 1024-AU21-NRPL Humpty Dumpty BC C 1 12:59:08.60 297.582 00:11:21 Yes
55 Rachel Olivieri - CA 0224-AU21-LAKE BB H 3 12:59:38.70 295.079 00:11:51 Yes
56 Kereru Whare - CA 4349-AU21-FSC MLY H 4 13:00:08.70 292.626 00:12:21 Yes
57 Kereru Whare - CA 4367-AU21-FSC BB H 5 13:00:17.30 291.930 00:12:30 Yes
58 Jones Family Loft - TX 1518-AU21-JFL SLT H 1 13:01:55.80 284.192 00:14:08 Yes
59 Baptista - IL 0192-AU21-BAPT DC H 1 13:01:58.00 284.024 00:14:10 Yes
60 Genesis Syndicate Loft - AZ 0205-AU21-GENS BC H 2 13:03:58.20 275.129 00:16:11 Yes
61 FLY EAGLE LOFT - NC 98080-AU21-ARPU BB H 3 13:04:03.10 274.778 00:16:16 Yes
62 Redlegs Loft - PA 13301-AU21-AA Sharky 74 x Super 222 BB H 1 13:04:25.00 273.221 00:16:38 Yes
63 Rachel Olivieri - CA 0225-AU21-LAKE BBSP H 4 13:05:11.60 269.966 00:17:24 Yes
64 O C F Syndicate - CA 1002-AU21-TOP BB H 2 13:05:20.80 269.333 00:17:33 Yes
65 Valhalla Loft - CA 2215-AU21-WSJ BCSP C 1 13:06:14.40 265.700 00:18:27 Yes
66 Redlegs Loft - PA 13400-AU21-AA Sharky 74 x Super 222 BB H 2 13:06:20.20 265.313 00:18:33 Yes
67 Dave Conover - PA 3139-IF21-PHX BB H 1 13:06:28.90 264.735 00:18:41 Yes
68 Ponce & H. Padilla - CA 1640-AU21-MTZ BB H 2 13:06:34.00 264.397 00:18:46 Yes
69 C and W Loft - CA 36428-AU21-JEDD GRIZ H 1 13:06:48.80 263.420 00:19:01 Yes
70 Aceves- C B C - CA 2742-AU21-AA BB H 1 13:07:32.40 260.586 00:19:45 Yes
71 Sextons Loft - IA 0220-AU21-DMI CLASSIE BB H 2 13:09:17.80 253.980 00:21:30 Yes
72 Goshentown Lofts - TN 10603-AU21-NASH BB H 1 13:09:19.20 253.895 00:21:32 Yes
73 Salvicon - CA 0106-AU21-RBPC BB H 2 13:09:23.00 253.663 00:21:36 Yes
74 Sierra Ranch - CA 1002-AU21-AUB BBWF H 3 13:10:18.60 250.320 00:22:31 Yes
75 Tucson Triple Challenge - AZ 11811-AU21-JEDD BB H 2 13:10:33.10 249.463 00:22:46 Yes
76 Sextons Loft - IA 0213-AU21-DMI BRAVE HEART BB H 3 13:11:31.00 246.096 00:23:44 Yes
77 FLY EAGLE LOFT - NC 98061-AU21-ARPU BBSP H 4 13:12:28.80 242.826 00:24:41 Yes
78 BIRDHIGH RANCH - CA 9242-AU21-JEDD SLT H 3 13:13:37.30 239.060 00:25:50 Yes
79 Crazy Als Lofts - CO 5939-AU21-CRAZ SLT H 2 13:15:11.30 234.079 00:27:24 Yes
80 Baptista - IL 0195-AU21-BAPT BB H 2 13:16:25.30 230.301 00:28:38 Yes
81 Rachel Olivieri - CA 0210-AU21-LAKE PIED H 5 13:16:32.30 229.950 00:28:45 Yes
82 Christopher Loft - UT 0041-AU21-GS PNWF H 3 13:17:49.00 226.173 00:30:01 Yes
83 Marty Macdonell - CA 0223-AU21-AUB BBSP H 1 13:17:54.40 225.911 00:30:07 Yes
84 Nanez Family Loft - WI 1061-AU21-NFL BB H 1 13:18:44.60 223.511 00:30:57 Yes
85 Baptista - IL 0196-AU21-BAPT BB H 3 13:19:37.40 221.041 00:31:50 Yes
86 Prout's Loft - CA 0475-AU21-PROU BB H 1 13:19:46.90 220.602 00:31:59 Yes
87 Thai Tommy Rusty - NV 20233-AU21-JEDD BB H 2 13:20:10.90 219.502 00:32:23 Yes
88 Erwin Racing Loft - CA 67735-AU21-ARPU BCSP H 2 13:21:28.70 216.008 00:33:41 Yes
89 Nanez Family Loft - WI 1023-AU21-NFL GRIZ H 2 13:24:32.10 208.198 00:36:45 Yes
90 A P C Loft - TX 0070-AU21-APC BB H 1 13:26:22.90 203.747 00:38:35 Yes
91 Tucson Triple Challenge - AZ 11812-AU21-JEDD BB H 3 13:26:55.90 202.458 00:39:08 Yes
92 Dave Conover - PA 3131-IF21-PHX BC H 2 13:27:39.50 200.780 00:39:52 Yes
93 Oddiebeng Loft - CA 18380-AU21-FOYS BC H 1 13:28:46.80 198.243 00:40:59 Yes
94 Scm Lofts - CA 16718-AU21-JEDD BBWF H 2 13:28:48.50 198.180 00:41:01 Yes
95 Nanez Family Loft - WI 1133-AU21-NFL BBSP H 3 13:29:11.20 197.339 00:41:24 Yes
96 Valhalla Loft - CA 2220-AU21-WSJ BC C 2 13:30:38.10 194.185 00:42:51 Yes
97 Crazy Als Lofts - CO 5950-AU21-CRAZ BB H 3 13:32:20.50 190.597 00:44:33 Yes
98 FLY EAGLE LOFT - NC 0066-AU21-DBS BB H 5 13:33:17.10 188.669 00:45:30 Yes
99 BIRDHIGH RANCH - CA 9203-AU21-JEDD GRIZ H 4 13:34:04.10 187.098 00:46:17 Yes
100 Fleet Washington - DC 2124-AU21-FLTW BCWF H 3 13:35:55.60 183.473 00:48:08 Yes

There are 341 bird records

Note: These Race Results are unofficial and subject to change until verified by the Race Committee and declared final.